This demonstration page uses our WeatherBlox Daily Observations layout. Learn more.

38.88101, -77.10428

Hourly Observations for March 3, 2017

Temp ( °F °C ) Dew Point ( °F °C ) Humidity (%) Winds ( mph kmh ) Pressure ( in mb ) Visibility ( mi km ) Precip ( " mm )
12:52 am 00:52 Mostly Cloudy 39 3.9 22 -5.6 50 50 W 6 9 30.21 1023 10 16.09344 0 0
1:52 am 01:52 Mostly Cloudy 40 4.4 23 -5 51 51 W 10 17 30.21 1023 10 16.09344 0 0
2:52 am 02:52 Mostly Cloudy 40 4.4 22 -5.6 49 49 WNW 16 26 30.21 1023 10 16.09344 0 0
3:52 am 03:52 Partly Cloudy 39 3.9 22 -5.6 50 50 WNW 10 17 30.21 1023 10 16.09344 0 0
4:13 am 04:13 Mostly Cloudy with Scattered Snow Showers 39 3.9 24 -4.4 55 55 NNW 23 37 30.24 1024 10 16.09344 0.001 0.001
4:26 am 04:26 Windy with Snow Likely 36 2.2 29 -1.7 76 76 N 21 33 30.27 1025 7 11.265408 0.001 0.001
4:40 am 04:40 Mostly Cloudy with Scattered Snow Showers 34 1 28 -2 81 81 NNW 17 28 30.27 1025 9 14.484096 0 0
4:52 am 04:52 Mostly Cloudy 34 1.1 28 -2.2 79 79 NNW 10 17 30.27 1025 9 14.484096 0.001 0.001
5:52 am 05:52 Mostly Cloudy with Scattered Snow Showers 34 1.1 26 -3.3 73 73 NNW 13 20 30.27 1025 10 16.09344 0.001 0.001
6:17 am 06:17 Mostly Cloudy with Scattered Snow Showers 34 1.1 27 -2.8 76 76 W 7 11 30.3 1026 9 14.484096 0.001 0.001
6:31 am 06:31 Mostly Cloudy 35 1.7 26 -3.3 70 70 W 7 11 30.3 1026 10 16.09344 0.001 0.001
6:52 am 06:52 Mostly Cloudy 35 1.7 25 -3.9 67 67 WNW 7 11 30.3 1026 10 16.09344 0.001 0.001
7:52 am 07:52 Mostly Cloudy 36 2.2 23 -5 59 59 NW 8 13 30.3 1026 10 16.09344 0 0
8:52 am 08:52 Mostly Cloudy 39 3.9 24 -4.4 55 55 NNW 14 22 30.33 1027 10 16.09344 0 0
9:52 am 09:52 Mostly Cloudy 39 3.9 20 -6.7 46 46 WNW 13 20 30.33 1027 10 16.09344 0 0
10:52 am 10:52 Mostly Cloudy 40 4.4 18 -7.8 41 41 WNW 15 24 30.33 1027 10 16.09344 0 0
11:52 am 11:52 Mostly Cloudy 42 5.6 17 -8.3 36 36 WNW 17 28 30.33 1027 10 16.09344 0 0
12:52 pm 12:52 Mostly Cloudy 42 5.6 17 -8.3 36 36 NNW 22 35 30.33 1027 10 16.09344 0 0
1:52 pm 13:52 Partly Cloudy 43 6.1 6 -14.4 22 22 WNW 28 44 30.33 1027 10 16.09344 0 0
2:52 pm 14:52 Mostly Cloudy 43 6.1 6 -14.4 22 22 W 17 28 30.36 1028 10 16.09344 0 0
3:52 pm 15:52 Partly Cloudy 43 6.1 7 -13.9 22 22 WNW 21 33 30.36 1028 10 16.09344 0 0
4:52 pm 16:52 Partly Cloudy 40 4.4 8 -13.3 27 27 W 16 26 30.39 1029 10 16.09344 0 0
5:52 pm 17:52 Partly Cloudy 39 3.9 10 -12.2 30 30 WNW 21 33 30.42 1030 10 16.09344 0 0
6:52 pm 18:52 Mostly Cloudy 38 3.3 15 -9.4 39 39 NW 18 30 30.48 1032 10 16.09344 0 0
7:52 pm 19:52 Mostly Clear 36 2.2 15 -9.4 42 42 NW 14 22 30.48 1032 10 16.09344 0 0
8:52 pm 20:52 Clear 35 1.7 15 -9.4 44 44 WNW 13 20 30.5 1033 10 16.09344 0 0
9:25 pm 21:25 Partly Cloudy 34 1.1 15 -9.4 46 46 NW 10 17 30.53 1034 10 16.09344 0 0
9:52 pm 21:52 Mostly Clear 33 0.6 14 -10 45 45 NNW 17 28 30.53 1034 10 16.09344 0 0
10:52 pm 22:52 Mostly Cloudy 32 0 13 -10.6 45 45 NNW 14 22 30.53 1034 10 16.09344 0 0
11:52 pm 23:52 Mostly Clear 31 -0.6 11 -11.7 43 43 NNW 12 19 30.53 1034 10 16.09344 0 0

Powered by AerisWeather